Time,TemperatureF,DewpointF,PressureIn,WindDirection,WindDirectionDegrees,WindSpeedMPH,WindSpeedGustMPH,Humidity,HourlyPrecipIn,Conditions,Clouds,dailyrainin,SoftwareType,DateUTC
2016-07-26 00:08:00,50.6,48.4,29.89,WNW,302,0.0,5.0,92,0.00,,CLR,0.00,VWS V14.00,2016-07-26 07:08:00,
2016-07-26 00:18:00,50.5,48.3,29.89,WNW,302,0.0,2.0,92,0.00,,CLR,0.00,VWS V14.00,2016-07-26 07:18:00,
2016-07-26 00:28:00,50.2,48.0,29.89,WNW,302,0.0,3.0,92,0.00,,CLR,0.00,VWS V14.00,2016-07-26 07:28:00,
2016-07-26 00:38:00,50.0,47.8,29.89,WNW,302,0.0,0.0,92,0.00,,,0.00,VWS V14.00,2016-07-26 07:38:00,
2016-07-26 00:48:00,49.9,47.7,29.89,WNW,302,2.0,2.0,92,0.00,,,0.00,VWS V14.00,2016-07-26 07:48:00,
2016-07-26 00:58:00,50.2,48.3,29.89,WNW,302,0.0,3.0,93,0.00,,,0.00,VWS V14.00,2016-07-26 07:58:00,
2016-07-26 01:08:00,50.3,48.4,29.89,WNW,302,0.0,3.0,93,0.00,,,0.00,VWS V14.00,2016-07-26 08:08:00,
2016-07-26 01:18:00,50.2,48.3,29.89,WNW,302,1.0,3.0,93,0.00,,,0.00,VWS V14.00,2016-07-26 08:18:00,
2016-07-26 01:28:00,50.2,48.3,29.89,WNW,302,0.0,5.0,93,0.00,,,0.00,VWS V14.00,2016-07-26 08:28:00,
2016-07-26 01:38:00,49.9,48.0,29.88,WNW,302,0.0,3.0,93,0.00,,,0.00,VWS V14.00,2016-07-26 08:38:00,
2016-07-26 01:48:00,49.8,48.2,29.88,WNW,302,0.0,5.0,94,0.00,,,0.00,VWS V14.00,2016-07-26 08:48:00,
2016-07-26 01:58:00,49.8,48.2,29.88,WNW,302,0.0,4.0,94,0.00,,,0.00,VWS V14.00,2016-07-26 08:58:00,
2016-07-26 02:08:00,49.6,48.0,29.88,WNW,302,0.0,2.0,94,0.00,,,0.00,VWS V14.00,2016-07-26 09:08:00,
2016-07-26 02:18:00,49.2,47.3,29.88,WNW,302,2.0,3.0,93,0.00,,,0.00,VWS V14.00,2016-07-26 09:18:00,
2016-07-26 02:28:00,49.1,47.5,29.88,WNW,302,1.0,2.0,94,0.00,,,0.00,VWS V14.00,2016-07-26 09:28:00,
2016-07-26 02:38:00,49.0,47.3,29.88,WNW,302,2.0,3.0,94,0.00,,,0.00,VWS V14.00,2016-07-26 09:38:00,
2016-07-26 02:48:00,49.1,47.5,29.88,WNW,302,3.0,4.0,94,0.00,,,0.00,VWS V14.00,2016-07-26 09:48:00,
2016-07-26 02:58:00,49.0,47.3,29.88,WNW,302,0.0,3.0,94,0.00,,,0.00,VWS V14.00,2016-07-26 09:58:00,
2016-07-26 03:08:00,49.0,47.3,29.87,WNW,302,0.0,3.0,94,0.00,,,0.00,VWS V14.00,2016-07-26 10:08:00,
2016-07-26 03:18:00,48.8,47.2,29.87,WNW,302,0.0,0.0,94,0.00,,,0.00,VWS V14.00,2016-07-26 10:18:00,
2016-07-26 03:28:00,48.5,46.9,29.87,WNW,302,0.0,0.0,94,0.00,,,0.00,VWS V14.00,2016-07-26 10:28:00,
2016-07-26 03:38:00,48.5,46.9,29.87,WNW,302,0.0,0.0,94,0.00,,,0.00,VWS V14.00,2016-07-26 10:38:00,
2016-07-26 03:48:00,48.6,47.0,29.88,WNW,302,0.0,0.0,94,0.00,,,0.00,VWS V14.00,2016-07-26 10:48:00,
2016-07-26 03:58:00,48.6,47.0,29.88,WNW,302,0.0,0.0,94,0.00,,,0.00,VWS V14.00,2016-07-26 10:58:00,
2016-07-26 04:08:00,48.6,47.2,29.88,WNW,302,0.0,0.0,95,0.00,,,0.00,VWS V14.00,2016-07-26 11:08:00,
2016-07-26 04:18:00,48.5,46.9,29.88,WNW,302,0.0,0.0,94,0.00,,,0.00,VWS V14.00,2016-07-26 11:18:00,
2016-07-26 04:28:00,48.2,46.6,29.87,WNW,302,0.0,0.0,94,0.00,,,0.00,VWS V14.00,2016-07-26 11:28:00,
2016-07-26 04:38:00,48.2,46.8,29.88,WNW,302,0.0,0.0,95,0.00,,,0.00,VWS V14.00,2016-07-26 11:38:00,
2016-07-26 04:48:00,48.4,47.0,29.88,WNW,302,0.0,0.0,95,0.00,,,0.00,VWS V14.00,2016-07-26 11:48:00,
2016-07-26 04:58:00,48.4,47.0,29.89,WNW,302,0.0,0.0,95,0.00,,,0.00,VWS V14.00,2016-07-26 11:58:00,
2016-07-26 05:08:00,48.4,47.0,29.89,WNW,302,0.0,0.0,95,0.00,,,0.00,VWS V14.00,2016-07-26 12:08:00,
2016-07-26 05:18:00,48.4,47.0,29.89,WNW,302,0.0,0.0,95,0.00,,,0.00,VWS V14.00,2016-07-26 12:18:00,
2016-07-26 05:28:00,48.4,47.0,29.88,WNW,302,2.0,2.0,95,0.00,,,0.00,VWS V14.00,2016-07-26 12:28:00,
2016-07-26 05:38:00,48.7,47.3,29.89,WNW,302,0.0,2.0,95,0.00,,,0.00,VWS V14.00,2016-07-26 12:38:00,
2016-07-26 05:48:00,48.8,47.4,29.89,WNW,302,3.0,3.0,95,0.00,,,0.00,VWS V14.00,2016-07-26 12:48:00,
2016-07-26 05:58:00,48.2,46.8,29.89,WNW,302,0.0,3.0,95,0.00,,,0.00,VWS V14.00,2016-07-26 12:58:00,
2016-07-26 06:08:00,48.1,46.7,29.89,WNW,302,0.0,4.0,95,0.00,,,0.00,VWS V14.00,2016-07-26 13:08:00,
2016-07-26 06:18:00,48.0,46.6,29.89,WNW,302,0.0,0.0,95,0.00,,,0.00,VWS V14.00,2016-07-26 13:18:00,
2016-07-26 06:28:00,47.7,46.3,29.89,WNW,302,0.0,0.0,95,0.00,,,0.00,VWS V14.00,2016-07-26 13:28:00,
2016-07-26 06:38:00,47.6,46.2,29.89,WNW,302,0.0,0.0,95,0.00,,,0.00,VWS V14.00,2016-07-26 13:38:00,
2016-07-26 06:48:00,47.9,46.5,29.89,WNW,302,0.0,0.0,95,0.00,,,0.00,VWS V14.00,2016-07-26 13:48:00,
2016-07-26 06:58:00,48.1,46.7,29.89,WNW,302,0.0,0.0,95,0.00,,,0.00,VWS V14.00,2016-07-26 13:58:00,
2016-07-26 07:08:00,48.8,47.7,29.89,ESE,107,0.0,0.0,96,0.00,,,0.00,VWS V14.00,2016-07-26 14:08:00,
2016-07-26 07:18:00,50.1,49.0,29.90,ESE,109,0.0,0.0,96,0.00,,,0.00,VWS V14.00,2016-07-26 14:18:00,
2016-07-26 07:28:00,51.9,51.1,29.90,ESE,109,0.0,2.0,97,0.00,,,0.00,VWS V14.00,2016-07-26 14:28:00,
2016-07-26 07:38:00,53.4,52.3,29.89,ESE,109,0.0,1.0,96,0.00,,,0.00,VWS V14.00,2016-07-26 14:38:00,
2016-07-26 07:48:00,54.8,53.1,29.90,ESE,109,0.0,3.0,94,0.00,,,0.00,VWS V14.00,2016-07-26 14:48:00,
2016-07-26 07:58:00,56.6,53.7,29.90,ESE,109,0.0,3.0,90,0.00,,,0.00,VWS V14.00,2016-07-26 14:58:00,
2016-07-26 08:08:00,58.0,53.8,29.90,North,355,1.0,2.0,86,0.00,,,0.00,VWS V14.00,2016-07-26 15:08:00,
2016-07-26 08:18:00,58.6,53.1,29.90,North,355,0.0,2.0,82,0.00,,,0.00,VWS V14.00,2016-07-26 15:18:00,
2016-07-26 08:28:00,59.8,53.6,29.90,North,355,0.0,1.0,80,0.00,,,0.00,VWS V14.00,2016-07-26 15:28:00,
2016-07-26 08:38:00,60.6,53.4,29.90,North,355,0.0,3.0,77,0.00,,FEW002,0.00,VWS V14.00,2016-07-26 15:38:00,
2016-07-26 08:48:00,61.5,53.5,29.90,North,355,0.0,2.0,75,0.00,,FEW002,0.00,VWS V14.00,2016-07-26 15:48:00,
2016-07-26 08:58:00,62.4,54.0,29.90,North,355,0.0,4.0,74,0.00,,FEW002,0.00,VWS V14.00,2016-07-26 15:58:00,
2016-07-26 09:08:00,64.1,54.5,29.90,North,355,1.0,4.0,71,0.00,,FEW002,0.00,VWS V14.00,2016-07-26 16:08:00,
2016-07-26 09:18:00,65.1,54.7,29.89,West,273,0.0,5.0,69,0.00,,FEW002,0.00,VWS V14.00,2016-07-26 16:18:00,
2016-07-26 09:28:00,67.0,55.3,29.88,WNW,298,2.0,6.0,66,0.00,,FEW002,0.00,VWS V14.00,2016-07-26 16:28:00,
2016-07-26 09:38:00,68.8,56.1,29.88,NNW,340,2.0,4.0,64,0.00,,CLR,0.00,VWS V14.00,2016-07-26 16:38:00,
2016-07-26 09:48:00,70.6,56.5,29.89,NNW,346,4.0,6.0,61,0.00,,CLR,0.00,VWS V14.00,2016-07-26 16:48:00,
2016-07-26 09:58:00,72.1,56.0,29.89,NNE,31,3.0,5.0,57,0.00,,CLR,0.00,VWS V14.00,2016-07-26 16:58:00,
2016-07-26 10:08:00,74.0,56.3,29.89,NNE,19,0.0,6.0,54,0.00,,CLR,0.00,VWS V14.00,2016-07-26 17:08:00,
2016-07-26 10:18:00,74.2,56.0,29.89,West,276,3.0,6.0,53,0.00,,CLR,0.00,VWS V14.00,2016-07-26 17:18:00,
2016-07-26 10:28:00,75.2,56.9,29.88,West,267,2.0,7.0,53,0.00,,CLR,0.00,VWS V14.00,2016-07-26 17:28:00,
2016-07-26 10:38:00,76.3,56.9,29.88,WSW,243,4.0,7.0,51,0.00,,CLR,0.00,VWS V14.00,2016-07-26 17:38:00,
2016-07-26 10:48:00,76.8,56.8,29.88,NW,315,6.0,8.0,50,0.00,,CLR,0.00,VWS V14.00,2016-07-26 17:48:00,
2016-07-26 10:58:00,77.2,56.6,29.87,WNW,288,5.0,9.0,49,0.00,,CLR,0.00,VWS V14.00,2016-07-26 17:58:00,
2016-07-26 11:08:00,77.6,57.0,29.87,NW,309,5.0,10.0,49,0.00,,CLR,0.00,VWS V14.00,2016-07-26 18:08:00,
2016-07-26 11:18:00,77.7,57.0,29.87,West,280,9.0,11.0,49,0.00,,CLR,0.00,VWS V14.00,2016-07-26 18:18:00,
2016-07-26 11:28:00,78.2,56.9,29.87,WNW,288,12.0,12.0,48,0.00,,CLR,0.00,VWS V14.00,2016-07-26 18:28:00,
2016-07-26 11:38:00,77.5,56.9,29.87,NW,304,9.0,14.0,49,0.00,,CLR,0.00,VWS V14.00,2016-07-26 18:38:00,
2016-07-26 11:48:00,77.5,56.9,29.87,NW,305,7.0,13.0,49,0.00,,CLR,0.00,VWS V14.00,2016-07-26 18:48:00,
2016-07-26 11:58:00,77.8,56.6,29.86,NW,305,9.0,13.0,48,0.00,,CLR,0.00,VWS V14.00,2016-07-26 18:58:00,